Regional Weather Roundup
Issued by NWS

Home | Current Version | Previous Version | Graphics & Text | Print | Product List | Glossary On
Versions: 1 2 3 4 5 6 7 8 9 10 11 12 13 14 15 16 17 18 19 20 21 22 23 24 25 26 27 28 29 30 31 32 33 34 35 36 37 38 39 40 41 42 43 44 45 46 47 48 49 50
224
ASUS45 KBOI 230110
RWRID

IDAHO REGIONAL WEATHER ROUNDUP
NATIONAL WEATHER SERVICE BOISE ID
600 PM MST WED FEB 22 2017

NOTE: "FAIR" INDICATES FEW OR NO CLOUDS BELOW 12000 FEET
WITH NO SIGNIFICANT WEATHER AND/OR OBSTRUCTIONS TO VISIBILITY

IDZ012-014-230200-
SOUTHWEST IDAHO


CITY           SKY/WX    TMP DP  RH WIND       PRES   REMARKS
BOISE          CLOUDY    37  29  72 NW14      29.88F WCI  28
CALDWELL       CLOUDY    38  28  67 W16       29.92S WCI  29
MOUNTAIN HOME  CLOUDY    37  34  90 NW18G26   29.85S WCI  27
$$

IDZ016-017-230200-
SOUTHCENTRAL IDAHO


CITY           SKY/WX    TMP DP  RH WIND       PRES   REMARKS
BURLEY         LGT SNOW  33  30  88 N7        29.79F FOG     WCI  27
JEROME           N/A    N/A N/A N/A MISG      29.82S
TWIN FALLS     LGT SNOW  31  29  92 VRB3      29.81S FOG
$$

IDZ019>023-230200-
SOUTHEAST IDAHO


CITY           SKY/WX    TMP DP  RH WIND       PRES   REMARKS
IDAHO FALLS    CLOUDY    32  26  78 VRB5      29.81F WCI  27
POCATELLO      CLOUDY    34  25  69 N6        29.81F WCI  29
REXBURG          N/A     35  19  52 CALM      29.82S
$$

IDZ006-010-011-018-031-032-230200-
CENTRAL IDAHO MOUNTAINS


CITY           SKY/WX    TMP DP  RH WIND       PRES   REMARKS
MCCALL         FLURRIES  27  22  81 W8        29.81S WCI  19
HAILEY         MOCLDY    30  21  69 CALM      29.79F
STANLEY          N/A     26  16  65 CALM      29.76F
SALMON         CLOUDY    34  27  75 SW5       29.82S WCI  30
CHALLIS        CLOUDY    31  18  58 NW6       29.79S WCI  25
$$

IDZ002-004-006-007-026-230200-
NORTHERN IDAHO


CITY           SKY/WX    TMP DP  RH WIND       PRES   REMARKS
LEWISTON       CLOUDY    41  28  60 NW9       30.04R
LOWELL           N/A     37  34  89 CALM      30.04S
COEUR D`ALENE  MOCLDY    32  28  85 CALM      30.02S
MULLAN PASS    FOG       21  21 100 NW5       29.86S VSB 1/2 WCI  15
$$




USA.gov is the U.S. government's official web portal to all federal, state and local government web resources and services.